www.pogodaiklimat.ru

Погода и климат >> Архив погоды >> Россия >> Ханты-Мансийский АО >> Леуши


ПОГОДА в Леушах

  • Прогноз погоды в Леушах
  • Монитор погоды в Леушах
  • Климат города

АРХИВ ПОГОДЫ в Леушах

Время (UTC), дата Ветер
(напр.,м/с)
 
Видим.   Явления Облачность Т
(С)
Тd
(С)
f
(%)
Тe
(С)
Тes
(С)
Комфортность P
(гПа)
Po
(гПа)
Тmin
(С)
Tmax
(С)
R
(мм)
R24
(мм)
S
(см)
09 18.04 ЮЗ 2 50 км 10/10 600 м
[Cb cap]
+7.8 +0.6 60 +6 +6 1009.1 1000.6
12 18.04 З 2 50 км в посл. час ливневой дождь 8/8 600 м
[Cb cap]
+6.3 +2.3 76 +4 +5 1010.1 1001.5
15 18.04 З 2 50 км в посл. час ливневой дождь 8/8 600 м
[Cb cap]
+6.3 +2.3 76 +4 +4 1010.1 1001.5
18 18.04 СЗ 3 20 км {ливн. осадки} 8/8 600 м
[Sc]
+1.2 -1.7 81 -3 -3 1012.6 1003.8
21 18.04 ЮЗ 1 20 км 10/10 600 м
[Sc]
-0.2 -3.4 79 -2 -2 1013.8 1004.9
00 19.04 З 1 20 км 10/10 600 м
[Sc]
-0.5 -3.6 80 -2 -2 1014.7 1005.9
03 19.04 З 3 10 км слабый снег 10/10 600 м
[Sc]
-0.4 -2.4 86 -5 -5 1016.0 1007.1 -1.5 0.3
06 19.04 СЗ 6
{10}
50 км {снег} 10/10 600 м
[Sc]
-0.3 -5.5 68 -7 -7 1018.2 1009.4
09 19.04 СЗ 7-11
{11}
50 км {снег} 9/9 600 м
[Sc]
+1.3 -9.3 45 -5 -4 1019.7 1010.8
12 19.04 СЗ 5
{11}
50 км {снег} 10/10 600 м
[Sc]
+1.6 -8.8 46 -3 -3 1021.5 1012.7
15 19.04 СЗ 2 50 км 8/3 600 м
[Sc Ci sp]
-0.2 -7.7 57 -3 -3 1023.1 1014.2 +2.0 0.0
18 19.04 З 1 20 км 4/0
[Ci fib]
-3.1 -7.7 71 -5 -5 1024.0 1015.0
21 19.04 ЮЗ 1 50 км 4/0
[Ci fib]
-3.8 -8.1 72 -6 -6 1025.1 1016.1
00 20.04 ЮЗ 2 20 км 3/0
[Ci fib]
-4.9 -8.8 74 -9 -9 1025.6 1016.5
03 20.04 З 1 50 км ясно -1.0 -8.9 55 -2 +1 1025.7 1016.7 -5.1
06 20.04 С 4 50 км 8/1 1000 м
[Cu hum Cc]
+1.2 -8.8 47 -3 +2 1025.4 1016.5
09 20.04 С 3 50 км 10/3 600 м
[Cu Sc Ac lent Ci fib]
+2.6 -10.1 39 -1 +2 1024.2 1015.4
12 20.04 СВ 2 50 км 10/4 600 м
[Sc Ac trans Ci fib]
+4.0 -10.2 35 +2 +3 1023.2 1014.4
15 20.04 СВ 2 50 км 10/0
[Ac lent Cs]
+3.0 -7.6 46 +1 +1 1021.7 1012.9 +4.0
18 20.04 В 2 20 км 10/10 600 м
[Sc]
+1.2 -5.3 62 -2 -2 1020.6 1011.7
21 20.04 В 3 20 км 10/6 600 м
[Sc Ci fib]
+0.9 -5.1 64 -3 -3 1017.4 1008.6
00 21.04 В 4-10
{11}
50 км {ливн. осадки} 10/8 600 м
[Cb cap Ci fib]
0.0 -2.6 83 -5 -5 1012.2 1003.4
03 21.04 ЮВ 4
{10}
50 км в посл. час гроза {ливн. осадки} 10/6 600 м
[Cb cap Ci fib]
+1.3 -1.2 83 -4 -3 1007.0 998.3 -0.1 4
06 21.04 ЮВ 5-10
{11}
50 км {гроза, ливн. осадки} 10/3 600 м
[Cu Sc Cc]
+8.0 +4.4 78 +4 +7 1001.8 993.4
09 21.04 Ю 5
{10}
50 км 9/9 600 м
[Sc]
+16.1 +5.3 49 +15 +16 998.1 989.9
12 21.04 З 5-11
{11}
50 км {дождь} 10/4 600 м
[Sc diur, vesp Ci fib]
+11.9 +0.8 46 +10 +11 998.8 990.4
15 21.04 З 2
{13}
50 км 8/1 600 м
[Sc Ac lent Ci fib]
+6.9 -6.9 37 +5 +5 1001.3 992.8 +16.2 1
18 21.04 З 1
{12}
20 км 10/8 600 м
[Sc Ci fib]
+1.4 -8.5 48 0 0 1004.1 995.4
21 21.04 Ю 1 20 км 10/0
[Ci fib]
-1.5 -7.8 62 -3 -3 1004.7 995.9
00 22.04 ЮЗ 1 50 км 10/1 600 м
[Sc diur, vesp Ci fib]
-2.5 -6.9 72 -4 -4 1005.2 996.4
03 22.04 З 3 50 км ясно -0.0 -6.3 63 -4 -2 1005.9 997.1 -2.7
06 22.04 З 3 50 км 5/5 600 м
[Cu Sc]
+3.3 -7.7 44 0 +4 1007.6 998.9
09 22.04 З 4
{13}
50 км 5/5 600 м
[Cu Sc]
+7.0 -9.4 30 +4 +8 1008.3 999.8
12 22.04 ЮЗ 3
{11}
50 км 8/8 600 м
[Sc]
+8.9 -10.4 24 +7 +8 1008.8 1000.3
15 22.04 штиль 0
{12}
50 км 4/3 600 м
[Sc diur, vesp Ac lent]
+6.0 -9.2 33 +6 +6 1009.4 1000.8 +9.6
18 22.04 Ю 2 20 км 4/4 600 м
[Sc]
+3.5 -9.2 39 +1 +1 1010.0 1001.3
21 22.04 Ю 2 20 км 4/4 600 м
[Sc]
+2.1 -8.6 45 -0 -0 1010.3 1001.6
00 23.04 Ю 2 50 км 10/0
[Ci fib]
+1.9 -8.0 48 -1 -1 1010.6 1001.9
03 23.04 Ю 2 50 км 10/10 600 м
[Sc]
+4.6 -7.8 40 +3 +3 1010.1 1001.5 +1.5
06 23.04 ЮВ 3 50 км 10/10 600 м
[Sc]
+9.8 -5.5 34 +8 +8 1008.3 999.8
09 23.04 ЮВ 8-12
{12}
50 км 10/5 600 м
[Sc Ac As]
+11.0 -6.9 28 +8 +8 1006.5 998.1
12 23.04 ЮВ 7-11
{12}
50 км 10/6 600 м
[Sc Ac As]
+10.3 -5.4 33 +7 +7 1005.3 996.9
15 23.04 ЮВ 5
{12}
50 км 10/6 600 м
[Sc Ac trans Ci fib]
+8.0 -3.9 43 +5 +5 1006.0 997.5 +11.7
18 23.04 ЮВ 4 20 км 10/10 600 м
[Sc]
+5.5 -3.9 51 +2 +2 1006.4 997.8
21 23.04 Ю 3 20 км 10/10 600 м
[Sc]
+5.2 -4.2 51 +2 +2 1006.6 998.0
00 24.04 ЮЗ 1 10 км слабый дождь 10/10 600 м
[Sc]
+4.5 -2.2 62 +4 +4 1007.7 999.0
03 24.04 З 2 50 км {дождь} 8/8 600 м
[Sc]
+6.1 +0.4 67 +4 +5 1009.9 1001.3 +3.5
06 24.04 ЮЗ 4 50 км {дождь} 8/3 600 м
[Sc diur, vesp Ci]
+10.0 -2.9 40 +8 +12 1011.2 1002.7
09 24.04 ЮЗ 2 50 км 6/3 600 м
[Sc diur, vesp Ci]
+13.1 -4.4 29 +13 +19 1012.1 1003.7
12 24.04 З 3 50 км 10/3 600 м
[Sc diur, vesp As trans Ci fib]
+13.3 -6.1 25 +13 +14 1012.9 1004.5
15 24.04 Ю 2 50 км 10/1 600 м
[Sc diur, vesp Ac As Ci fib]
+10.2 -4.2 36 +9 +9 1013.2 1004.7 +14.0
18 24.04 Ю 1 20 км 10/10 600 м
[Sc]
+8.8 -0.7 51 +9 +9 1014.9 1006.3
21 24.04 ЮВ 4 20 км 10/10 600 м
[Sc]
+6.5 +4.2 85 +3 +3 1013.3 1004.7
00 25.04 ЮВ 3 10 км слабый дождь 10/10 600 м
[Sc]
+5.9 +4.8 93 +2 +2 1009.2 1000.6
03 25.04 ЮВ 6
{10}
50 км {дождь} 10/10 600 м
[Sc]
+6.9 +4.7 86 +2 +2 1005.2 996.6 +5.8 2

 

Местоположение метеостанции Леуши (Ханты-Мансийский АО, Россия): широта 59.63 долгота 65.72 высота над уровнем моря 72 м.

В архиве по умолчанию представлена погода в Леушах за последнюю неделю. Архивные данные за месяц целиком и за предыдущие месяцы, начиная с января 2011 года, Вы можете получить, выбрав интересующий диапазон дат из раскрывающегося списка и нажав кнопку "Ввод!".

Внимание! Время в таблицах - всемирное. Для получения местного времени необходимо прибавить поправку, которая в Леушах равна 5 ч.

Смотрите также архив погоды в соседних городах и на ближайших метеорологических станциях:

Погода в Кондинском (Ханты-Мансийский АО, Россия) (96 км)
Погода в Куминской (Ханты-Мансийский АО, Россия) (103 км)
Погода в Шаиме (Ханты-Мансийский АО, Россия) (113 км)
Погода в Таборах (Свердловская область, Россия) (141 км)
Погода в Тавде (Свердловская область, Россия) (175 км)
Погода в Увате (Тюменская область, Россия) (188 км)
Погода в Гари (Свердловская область, Россия) (192 км)
Погода в Алтае (Ханты-Мансийский АО, Россия) (197 км)
Погода в Демьянском (Тюменская область, Россия) (200 км)
Погода в Туринске (Свердловская область, Россия) (211 км)

Пояснения к столбцам:

Ветер - указаны скорость ветра в м/с - средняя за 10 мин, порывы в срок и между сроками (в фигурных скобках) и направление, откуда дует ветер: С - северный, СВ - северо-восточный, В - восточный, ЮВ - юго-восточный, Ю - южный, ЮЗ - юго-западный, З - западный, СЗ - северо-западный.
Видимость - горизонтальная дальность видимости в метрах или километрах. При видимости от 1 до 10 км при отсутствии осадков обычно наблюдается дымка, при ухудшении видимости до 1 км и менее - туман. В сухую погоду видимость может ухудшаться дымом, пылью или мглою.
Явления - указаны атмосферные явления, наблюдавшиеся в срок или в последний час перед сроком; фигурными скобками обозначены явления, наблюдавшиеся между сроками (за 1-3 часа до срока); квадратными скобками обозначены град или гололедные отложения с указанием их диаметра в мм.
Облачность - указаны через наклонную черту общая и нижняя облачность в баллах и высота нижней границы облаков в метрах; квадратными скобками обозначены формы облаков: Ci - перистые, Cs - перисто-слоистые, Cc - перисто-кучевые, Ac - высококучевые, As - высокослоистые, Sc - слоисто-кучевые, Ns - слоисто-дождевые, Cu - кучевые, Cb - кучево-дождевые. Подробнее классификацию облаков см. в Атласе облаков (PDF).
T - Температура воздуха - температура, измеренная на высоте 2 м над землей.
Td - Температура точки росы - температура, при понижении до которой содержащийся в воздухе водяной пар достигнет насыщения.
f - Относительная влажность воздуха - влажноcть воздуха, измеренная на высоте 2 м над землей.
Te - Эффективная температура - температура, которую ощущает одетый по сезону человек в тени. Характеристика душности погоды. При расчете учитывается влияние влажности воздуха и скорости ветра на теплоощущения человека.
Tes - Эффективная температура на солнце - температура, которую ощущает человек, с поправкой на солнечный нагрев. Характеристика знойности погоды. Зависит от высоты солнца над горизонтом, облачности и скорости ветра. Ночью, в пасмурную погоду, а также при ветре 12 м/с и более поправка равна нулю.
P - Атмосферное давление - приведенное к уровню моря атмосферное давление.
Po - Атмосферное давление - измеренное на уровне метеостанции атмосферное давление.
Tmin - Минимальная температура - минимум температуры воздуха на высоте 2 м над землей.
Tmax - Максимальная температура - максимум температуры воздуха на высоте 2 м над землей.
R - Количество осадков - Количество выпавших осадков за период времени, мм. При наведении курсора мыши на число - период времени, за который выпало указанное количество осадков.
R24 - Количество осадков - Количество выпавших осадков за 24 часа, мм.
S - Снежный покров - Высота снежного покрова, см. При наведении курсора мыши на число - состояние снежного покрова и степень покрытия местности в баллах.